NO4D Weather Reports


Display with metric or nautical units.
time (UTC)temp
F
wind
direction
speed
MPH
gust
MPH
rain 1hr
in
rain 24hr
in
rain mn
in
humidity
%
barometer
mb
20260504012016 59 189 0.0 1.0 0.00 0.00 0.00 60 1016.6
20260504011512 59 186 0.0 1.0 0.00 0.00 0.00 60 1016.5
20260504011008 58 180 0.0 0.0 0.00 0.00 0.00 58 1016.6
20260504010504 58 180 0.0 0.0 0.00 0.00 0.00 57 1016.3
20260504010000 59 180 0.0 0.0 0.00 0.00 0.00 57 1016.4
20260504005457 59 180 0.0 0.0 0.00 0.00 0.00 56 1016.5
20260504004954 59 180 0.0 0.0 0.00 0.00 0.00 56 1016.4
20260504004452 59 180 0.0 0.0 0.00 0.00 0.00 56 1016.3
20260504003949 59 180 0.0 0.0 0.00 0.00 0.00 56 1016.3
20260504003445 59 180 0.0 0.0 0.00 0.00 0.00 55 1016.4
20260504002942 60 180 0.0 0.0 0.00 0.00 0.00 54 1016.3
20260504002439 61 180 0.0 0.0 0.00 0.00 0.00 53 1016.2
20260504001936 61 180 0.0 0.0 0.00 0.00 0.00 53 1016.3
20260504001433 62 180 0.0 0.0 0.00 0.00 0.00 52 1016.2
20260504000930 63 180 0.0 0.0 0.00 0.00 0.00 51 1016.2
20260504000427 63 139 1.0 3.0 0.00 0.00 0.00 50 1016.0
20260503235924 64 180 0.0 0.0 0.00 0.00 0.00 49 1016.1
20260503235422 64 183 0.0 0.0 0.00 0.00 0.00 49 1015.9
20260503234919 65 191 2.0 3.0 0.00 0.00 0.00 48 1016.3
20260503234417 65 238 2.0 3.0 0.00 0.00 0.00 47 1016.2
20260503233914 65 208 2.0 3.0 0.00 0.00 0.00 47 1015.9
20260503233411 65 183 0.0 0.0 0.00 0.00 0.00 48 1015.9
20260503232907 66 175 3.0 4.0 0.00 0.00 0.00 46 1016.3
20260503232405 67 209 2.0 3.0 0.00 0.00 0.00 45 1016.1
20260503231902 67 190 1.0 1.0 0.00 0.00 0.00 46 1016.2
20260503231359 67 203 3.0 4.0 0.00 0.00 0.00 44 1016.4
20260503230855 68 215 3.0 4.0 0.00 0.00 0.00 43 1016.2
20260503230352 68 198 1.0 3.0 0.00 0.00 0.00 45 1016.2
20260503225850 68 202 2.0 3.0 0.00 0.00 0.00 44 1016.1
20260503225345 69 251 5.0 7.0 0.00 0.00 0.00 43 1016.1
20260503224842 68 183 3.0 4.0 0.00 0.00 0.00 43 1016.5
20260503224339 69 226 4.0 5.0 0.00 0.00 0.00 43 1016.1
20260503223837 69 216 3.0 3.0 0.00 0.00 0.00 42 1016.3
20260503223335 69 190 5.0 7.0 0.00 0.00 0.00 41 1016.2
20260503222830 70 195 3.0 4.0 0.00 0.00 0.00 41 1016.3
20260503222329 69 199 2.0 3.0 0.00 0.00 0.00 41 1016.5
20260503221826 69 222 5.0 7.0 0.00 0.00 0.00 39 1016.3
20260503221325 69 163 2.0 3.0 0.00 0.00 0.00 42 1016.4
20260503220820 70 235 3.0 4.0 0.00 0.00 0.00 41 1016.4
20260503220318 71 249 4.0 5.0 0.00 0.00 0.00 39 1016.5
20260503215814 70 191 1.0 1.0 0.00 0.00 0.00 39 1016.4
20260503215312 71 197 3.0 4.0 0.00 0.00 0.00 39 1016.3
20260503214809 71 196 3.0 4.0 0.00 0.00 0.00 40 1016.4
20260503214306 71 221 1.0 3.0 0.00 0.00 0.00 39 1016.5
20260503213804 70 210 4.0 4.0 0.00 0.00 0.00 40 1016.6
20260503213301 71 210 3.0 4.0 0.00 0.00 0.00 41 1016.4
20260503212758 70 177 2.0 3.0 0.00 0.00 0.00 39 1016.4
20260503212256 70 242 4.0 5.0 0.00 0.00 0.00 39 1016.6
20260503211753 70 229 6.0 8.0 0.00 0.00 0.00 39 1016.6
20260503211249 70 152 3.0 3.0 0.00 0.00 0.00 41 1016.8
20260503210744 71 154 5.0 8.0 0.00 0.00 0.00 39 1016.6
20260503210242 70 194 1.0 1.0 0.00 0.00 0.00 39 1016.7
20260503205742 71 254 5.0 7.0 0.00 0.00 0.00 38 1016.8
20260503205239 69 212 3.0 4.0 0.00 0.00 0.00 40 1016.8
20260503204735 70 218 7.0 12.0 0.00 0.00 0.00 40 1016.8
20260503204233 70 206 3.0 4.0 0.00 0.00 0.00 40 1016.9
20260503203731 71 239 2.0 3.0 0.00 0.00 0.00 40 1016.9
20260503203228 71 234 3.0 4.0 0.00 0.00 0.00 38 1016.9
20260503202725 71 271 1.0 3.0 0.00 0.00 0.00 38 1017.1
20260503202223 70 207 3.0 4.0 0.00 0.00 0.00 35 1017.2
20260503201720 71 240 5.0 7.0 0.00 0.00 0.00 36 1017.4
20260503201218 71 179 2.0 3.0 0.00 0.00 0.00 38 1017.5
20260503200714 70 192 3.0 3.0 0.00 0.00 0.00 40 1017.5
20260503200210 70 202 1.0 3.0 0.00 0.00 0.00 39 1017.8
20260503195707 69 215 3.0 4.0 0.00 0.00 0.00 39 1017.8
20260503195204 70 268 6.0 7.0 0.00 0.00 0.00 37 1018.0
20260503194701 69 212 2.0 3.0 0.00 0.00 0.00 40 1018.2
20260503194156 70 247 6.0 7.0 0.00 0.00 0.00 38 1017.7
20260503193653 68 215 5.0 5.0 0.00 0.00 0.00 39 1017.8
20260503193149 68 97 6.0 7.0 0.00 0.00 0.00 40 1018.3
20260503192645 68 210 4.0 4.0 0.00 0.00 0.00 39 1018.1
20260503192141 69 278 4.0 5.0 0.00 0.00 0.00 40 1018.1
20260503191638 68 203 3.0 5.0 0.00 0.00 0.00 41 1018.2
20260503191135 69 258 3.0 3.0 0.00 0.00 0.00 38 1018.4
20260503190632 67 196 4.0 5.0 0.00 0.00 0.00 43 1018.4
20260503190129 68 208 5.0 7.0 0.00 0.00 0.00 39 1018.6
20260503185625 69 220 3.0 5.0 0.00 0.00 0.00 39 1018.6
20260503185120 68 278 3.0 3.0 0.00 0.00 0.00 41 1018.5
20260503184615 68 230 4.0 5.0 0.00 0.00 0.00 41 1018.6
20260503184112 68 71 2.0 3.0 0.00 0.00 0.00 40 1018.9
20260503183609 68 210 4.0 7.0 0.00 0.00 0.00 41 1018.7
20260503183106 69 211 2.0 3.0 0.00 0.00 0.00 38 1019.0
20260503182605 67 234 1.0 1.0 0.00 0.00 0.00 39 1018.8
20260503182102 68 315 5.0 7.0 0.00 0.00 0.00 39 1018.8
20260503181559 67 333 3.0 5.0 0.00 0.00 0.00 41 1018.8
20260503181055 67 289 4.0 5.0 0.00 0.00 0.00 41 1018.8
20260503180553 66 192 0.0 1.0 0.00 0.00 0.00 39 1018.7
20260503180050 67 314 4.0 4.0 0.00 0.00 0.00 41 1019.0
20260503175547 67 205 1.0 3.0 0.00 0.00 0.00 42 1019.0
20260503175044 67 219 3.0 4.0 0.00 0.00 0.00 43 1018.9
20260503174542 66 129 1.0 1.0 0.00 0.00 0.00 41 1019.3
20260503174038 67 276 2.0 3.0 0.00 0.00 0.00 40 1019.3
20260503173533 66 190 6.0 10.0 0.00 0.00 0.00 44 1019.1
20260503173029 65 208 3.0 4.0 0.00 0.00 0.00 44 1019.6
20260503172527 66 251 3.0 4.0 0.00 0.00 0.00 41 1019.5
20260503172024 66 112 1.0 3.0 0.00 0.00 0.00 44 1019.8
20260503171520 66 169 3.0 5.0 0.00 0.00 0.00 48 1019.6
20260503171018 65 212 2.0 4.0 0.00 0.00 0.00 46 1019.8
20260503170514 66 329 4.0 4.0 0.00 0.00 0.00 44 1020.0
20260503150906 60 176 0.0 1.0 0.00 0.00 0.00 50 1020.9
20260503150403 61 136 1.0 1.0 0.00 0.00 0.00 49 1020.9
20260503131256 56 305 0.0 1.0 0.00 0.00 0.00 57 1020.9
20260503130754 56 78 4.0 4.0 0.00 0.00 0.00 61 1020.8
20260503130251 55 109 1.0 3.0 0.00 0.00 0.00 63 1020.9
20260503120217 51 104 1.0 1.0 0.00 0.00 0.00 66 1020.4
20260503110644 49 308 2.0 3.0 0.00 0.00 0.00 67 1020.1
20260503110142 49 317 3.0 4.0 0.00 0.00 0.00 67 1019.9
20260503100109 49 336 3.0 4.0 0.00 0.00 0.00 65 1018.8
20260503081458 51 342 3.0 5.0 0.00 0.00 0.00 61 1018.0
20260503080955 51 333 5.0 5.0 0.00 0.00 0.00 60 1017.9
20260503080451 51 3 2.0 3.0 0.00 0.00 0.00 62 1017.7
20260503072927 50 82 0.0 1.0 0.00 0.00 0.00 64 1017.7
20260503072425 50 349 1.0 1.0 0.00 0.00 0.00 64 1017.4
20260503071922 50 245 1.0 3.0 0.00 0.00 0.00 64 1017.3
20260503071419 50 310 1.0 1.0 0.00 0.00 0.00 64 1017.5
20260503070915 50 274 1.0 1.0 0.00 0.00 0.00 64 1017.4
20260503070412 50 289 1.0 1.0 0.00 0.00 0.00 64 1017.3
20260503060338 50 235 1.0 1.0 0.00 0.00 0.00 63 1017.2
20260503054826 50 204 0.0 0.0 0.00 0.00 0.00 63 1017.2
20260503054321 50 205 0.0 0.0 0.00 0.00 0.00 64 1017.3
20260503053820 50 204 0.0 0.0 0.00 0.00 0.00 65 1017.3
20260503053318 50 205 1.0 1.0 0.00 0.00 0.00 64 1017.2
20260503052814 50 207 0.0 0.0 0.00 0.00 0.00 64 1017.1
20260503052311 50 220 0.0 1.0 0.00 0.00 0.00 63 1017.1
20260503051807 50 231 0.0 1.0 0.00 0.00 0.00 64 1017.2
20260503051303 50 326 2.0 3.0 0.00 0.00 0.00 64 1016.9
20260503050800 49 201 0.0 1.0 0.00 0.00 0.00 67 1017.1
20260503050256 49 198 0.0 0.0 0.00 0.00 0.00 67 1017.1
20260503045754 49 209 0.0 0.0 0.00 0.00 0.00 66 1017.0
20260503045252 50 203 0.0 0.0 0.00 0.00 0.00 65 1017.1
20260503044748 50 203 0.0 0.0 0.00 0.00 0.00 64 1017.0
20260503044245 50 203 0.0 0.0 0.00 0.00 0.00 62 1017.0
20260503043742 51 203 0.0 0.0 0.00 0.00 0.00 63 1017.2
20260503043239 51 203 0.0 1.0 0.00 0.00 0.00 61 1017.1
20260503042735 51 203 1.0 1.0 0.00 0.00 0.00 60 1016.9
20260503042232 51 202 0.0 0.0 0.00 0.00 0.00 61 1016.7
20260503041728 51 203 0.0 1.0 0.00 0.00 0.00 59 1016.9
20260503041226 51 202 1.0 1.0 0.00 0.00 0.00 59 1016.9
20260503040724 52 202 0.0 0.0 0.00 0.00 0.00 60 1016.8
20260503040221 51 203 0.0 1.0 0.00 0.00 0.00 60 1016.7
20260503035717 52 228 2.0 3.0 0.00 0.00 0.00 58 1016.7
20260503035215 51 215 1.0 1.0 0.00 0.00 0.00 59 1016.5
20260503034712 51 216 1.0 1.0 0.00 0.00 0.00 61 1016.4
20260503034209 51 193 1.0 1.0 0.00 0.00 0.00 61 1016.2
20260503033706 50 185 1.0 1.0 0.00 0.00 0.00 60 1016.5
20260503033204 51 158 0.0 0.0 0.00 0.00 0.00 61 1016.3
20260503032702 52 202 0.0 0.0 0.00 0.00 0.00 57 1016.2
20260503032200 52 185 0.0 0.0 0.00 0.00 0.00 58 1016.2
20260503031657 52 202 1.0 1.0 0.00 0.00 0.00 56 1016.4
20260503031155 52 172 0.0 0.0 0.00 0.00 0.00 57 1016.3
20260503030651 53 171 0.0 0.0 0.00 0.00 0.00 54 1016.3
20260503030147 53 171 0.0 0.0 0.00 0.00 0.00 53 1016.0
20260503025644 53 171 0.0 0.0 0.00 0.00 0.00 53 1016.1
20260503025143 53 176 0.0 0.0 0.00 0.00 0.00 52 1016.1
20260503024638 54 190 0.0 0.0 0.00 0.00 0.00 51 1016.1
20260503024136 55 198 0.0 0.0 0.00 0.00 0.00 50 1016.1
20260503023633 55 210 0.0 1.0 0.00 0.00 0.00 50 1015.8
20260503023130 55 338 1.0 1.0 0.00 0.00 0.00 50 1016.1
20260503022625 55 353 1.0 1.0 0.00 0.00 0.00 49 1015.7
20260503022120 56 357 1.0 1.0 0.00 0.00 0.00 49 1015.8
20260503021618 56 332 2.0 3.0 0.00 0.00 0.00 49 1015.4
20260503021114 56 295 1.0 1.0 0.00 0.00 0.00 48 1015.3
20260503020611 56 213 1.0 3.0 0.00 0.00 0.00 48 1015.5
20260503020109 56 47 0.0 1.0 0.00 0.00 0.00 48 1015.1
20260503015605 56 332 3.0 4.0 0.00 0.00 0.00 48 1015.2
20260503015102 57 236 2.0 3.0 0.00 0.00 0.00 46 1015.2
20260503014558 57 323 2.0 3.0 0.00 0.00 0.00 46 1015.0
20260503014056 57 351 3.0 5.0 0.00 0.00 0.00 45 1015.0
20260503013553 57 340 2.0 3.0 0.00 0.00 0.00 45 1015.2
20260503013051 58 359 4.0 5.0 0.00 0.00 0.00 45 1014.8
20260503012548 58 323 2.0 3.0 0.00 0.00 0.00 45 1014.8